Location: Northcutt
(34.7304°N, 84.4305°W)
Time: 17:42:59
(UTC+00:00)

SR - Pass Details

Date: 10 October 2022
Orbit: 577 x 874 km, 66.7° (Epoch: 05 December)

Event Time Altitude Azimuth Distance (km) Brightness Sun altitude
Rises 00:44:02 0° 217° (SW) 3,404 ? -20.0°
Reaches altitude 10° 00:46:31 10° 221° (SW) 2,493 ? -20.5°
Maximum altitude 00:52:14 57° 299° (WNW) 1,025 ? -21.7°
Drops below altitude 10° 00:58:01 10° 18° (NNE) 2,516 ? -22.8°
Sets 01:00:33 0° 23° (NNE) 3,438 ? -23.3°
